Terminal Aerodrome Forecast
Issued by NWS Boston, MA

Home | Current Version | Previous Version | Text Only | Print | Product List | Glossary On
Versions: 1 2 3 4 5 6 7 8 9 10 11 12 13 14 15 16 17 18 19 20 21 22 23 24 25 26 27 28 29 30 31 32 33 34 35 36 37 38 39 40 41 42 43 44 45 46 47
000
FTUS41 KBOX 051133
TAFPVD
TAF
KPVD 051133Z 0512/0612 20006KT P6SM BKN120
     FM051900 07006KT P6SM BKN050
     FM052300 18008KT P6SM SCT060
     FM060100 19005KT P6SM BKN090
     FM060400 00000KT P6SM BKN140=

USA.gov is the U.S. government's official web portal to all federal, state and local government web resources and services.